TimeEET,TemperatureF,Dew PointF,Humidity,Sea Level PressureIn,VisibilityMPH,Wind Direction,Wind SpeedMPH,Gust SpeedMPH,PrecipitationIn,Events,Conditions,WindDirDegrees,DateUTC
12:00 AM,66.2,50.0,56,29.92,-9999.0,Calm,Calm,-,N/A,,Clear,0,2013-03-11 22:00:00
1:00 AM,66.2,50.0,56,29.89,-9999.0,Calm,Calm,-,N/A,,Clear,0,2013-03-11 23:00:00
2:00 AM,65,52,53,29.92,6,Calm,Calm,,,,,,2013-03-12 00:00:00
2:00 AM,64.4,51.8,64,29.92,-9999.0,Calm,Calm,-,N/A,,Clear,0,2013-03-12 00:00:00
3:00 AM,64.4,51.8,64,29.92,-9999.0,Calm,Calm,-,N/A,,Clear,0,2013-03-12 01:00:00
4:00 AM,62.6,51.8,68,29.92,-9999.0,Calm,Calm,-,N/A,,Clear,0,2013-03-12 02:00:00
5:00 AM,60.8,51.8,72,29.95,-9999.0,Calm,Calm,-,N/A,,Clear,0,2013-03-12 03:00:00
6:00 AM,59.0,51.8,77,29.95,-9999.0,Calm,Calm,-,N/A,,Clear,0,2013-03-12 04:00:00
7:00 AM,59.0,51.8,77,29.95,-9999.0,Calm,Calm,-,N/A,,Clear,0,2013-03-12 05:00:00
8:00 AM,63,46,43,29.89,6,South,4.6,,,,,170,2013-03-12 06:00:00
8:00 AM,62.6,46.4,55,29.89,-9999.0,South,4.6,-,N/A,,Clear,170,2013-03-12 06:00:00
9:00 AM,66.2,42.8,43,29.86,-9999.0,South,9.2,-,N/A,,Clear,170,2013-03-12 07:00:00
10:00 AM,78.8,50.0,36,29.83,-9999.0,South,11.5,-,N/A,,Clear,180,2013-03-12 08:00:00
11:00 AM,84.2,51.8,33,29.83,-9999.0,South,13.8,-,N/A,,Clear,170,2013-03-12 09:00:00
12:00 PM,89.6,44.6,21,29.80,1.9,South,17.3,-,N/A,,Sand,190,2013-03-12 10:00:00
1:00 PM,89.6,44.6,21,29.80,0.7,SSW,17.3,-,N/A,,Sand,210,2013-03-12 11:00:00
2:00 PM,91,44,11,29.78,1,SSW,20.7,,,,Blowing Sand,200,2013-03-12 12:00:00
2:00 PM,91.4,44.6,20,29.77,0.7,SSW,20.7,-,N/A,,Sand,200,2013-03-12 12:00:00
3:00 PM,91.4,46.4,21,29.74,0.7,SSW,15.0,-,N/A,,Sand,210,2013-03-12 13:00:00
4:00 PM,89.6,46.4,22,29.74,0.7,South,12.7,-,N/A,,Unknown,190,2013-03-12 14:00:00
5:00 PM,84.2,50.0,30,29.74,0.7,SW,4.6,-,N/A,,Unknown,230,2013-03-12 15:00:00
6:00 PM,80.6,53.6,39,29.74,0.7,SSW,1.2,-,N/A,,Unknown,200,2013-03-12 16:00:00
7:00 PM,77.0,57.2,50,29.74,1.9,SSW,1.2,-,N/A,,Unknown,200,2013-03-12 17:00:00
8:00 PM,76,54,37,29.77,2,WNW,12.7,,,,Blowing Sand,300,2013-03-12 18:00:00
8:00 PM,75.2,53.6,47,29.77,1.9,WNW,12.7,-,N/A,,Sand,300,2013-03-12 18:00:00
9:00 PM,73.4,57.2,57,29.80,3.7,NW,16.1,-,N/A,,Unknown,320,2013-03-12 19:00:00
10:00 PM,68.0,59.0,73,29.83,-9999.0,NW,13.8,-,N/A,,Clear,320,2013-03-12 20:00:00
11:00 PM,66.2,59.0,78,29.86,-9999.0,NW,9.2,-,N/A,,Clear,320,2013-03-12 21:00:00